Location: Bennemühlen
(52.5740°N, 9.7135°E)
Time: 23:59:29
(UTC+00:00)

Cosmos 1975 - Pass Details

Date: 19 May 2025
Orbit: 487 x 506 km, 82.5° (Epoch: 15 June)

Event Time Altitude Azimuth Distance (km) Brightness Sun altitude
Rises 22:44:03 0° 343° (NNW) 2,577 7.9 -17.1°
Reaches altitude 10° 22:46:15 10° 335° (NNW) 1,689 6.5 -17.1°
Maximum altitude 22:49:40 37° 267° (W) 780 3.6 -17.2°
Enters shadow 22:50:54 28° 225° (SW) 946 3.7 -17.2°
